Boscobel, WI

2:21 AM CDT on April 28, 2017 (GMT -0500)
Boscobel

Weather History for KOVS - February, 2014

Change the Weather History Date:

Sunday, February 16, 2014

  Actual Average (KPDC) Record (KPDC)
Temperature  
Mean Temperature 20 °F -  
Max Temperature 27 °F 33 °F 60 °F (1981)
Min Temperature 14 °F 13 °F -12 °F (1958)
Degree Days  
Heating Degree Days 44    
Moisture  
Dew Point 10 °F    
Average Humidity 68    
Maximum Humidity 84    
Minimum Humidity 47    
Precipitation  
Precipitation 0.00 in - - ()
Sea Level Pressure  
Sea Level Pressure 30.17 in    
Wind  
Wind Speed 4 mph (North)    
Max Wind Speed 9 mph    
Max Gust Speed -    
Visibility 8 miles    
Events Snow    
Averages and records for this station are not official NWS values.
T = Trace of Precipitation, MM = Missing Value Source: NWS Daily Summary

Daily Weather History Graph

Daily Weather History Graph

Search for Another Location

Airport or City:

Trip Planner

Search our weather history database for the weather conditions in past years. The results will help you decide how hot, cold, wet, or windy it might be!

Date:

Astronomy

Feb. 16, 2014 Rise Set
Actual Time 6:58 AM CST 5:35 PM CST
Civil Twilight 6:29 AM CST 6:04 PM CST
Nautical Twilight 5:56 AM CST 6:37 PM CST
Astronomical Twilight 5:23 AM CST 7:10 PM CST
Moon 7:36 PM CST (2/16) 7:25 AM CST (2/16)
Length of Visible Light 11h 34m
Length of Day
10h 36m
Full, 97% of the Moon is Illuminated
Feb 16
Full
Feb 22
Last Quarter
Mar 1
New
Mar 8
First Quarter
Mar 16
Full

Hourly Weather History & Observations

Time (CST) Temp. Windchill Dew Point Humidity Pressure Visibility Wind Dir Wind Speed Gust Speed Precip Events Conditions
12:32 AM 18.0 °F - 12.9 °F 81% 29.98 in 6.0 mi Calm Calm - N/A   Haze
12:53 AM 18.0 °F 11.1 °F 14.0 °F 84% 30.03 in 6.0 mi WNW 4.6 mph - N/A   Overcast
1:16 AM 19.0 °F 8.2 °F 14.0 °F 81% 29.99 in 6.0 mi North 9.2 mph - N/A   Haze
1:53 AM 19.0 °F 9.0 °F 12.9 °F 77% 30.04 in 7.0 mi North 8.1 mph - N/A   Overcast
2:44 AM 17.1 °F 7.6 °F 10.9 °F 77% 30.00 in 9.0 mi North 6.9 mph - N/A   Scattered Clouds
2:53 AM 17.1 °F 10.0 °F 10.9 °F 77% 30.04 in 9.0 mi North 4.6 mph - N/A   Mostly Cloudy
3:53 AM 17.1 °F - 12.0 °F 81% 30.06 in 8.0 mi Calm Calm - N/A   Overcast
4:39 AM 17.1 °F 11.7 °F 12.0 °F 81% 30.06 in 7.0 mi SW 3.5 mph - N/A   Overcast
4:53 AM 16.0 °F 8.8 °F 10.9 °F 81% 30.11 in 7.0 mi SW 4.6 mph - N/A   Overcast
5:09 AM 18.0 °F 11.1 °F 12.0 °F 78% 30.08 in 8.0 mi WSW 4.6 mph - N/A   Overcast
5:53 AM 16.0 °F - 10.9 °F 81% 30.14 in 8.0 mi Calm Calm - N/A   Overcast
6:39 AM 16.0 °F 6.3 °F 9.0 °F 74% 30.09 in 10.0 mi North 6.9 mph - N/A   Scattered Clouds
6:53 AM 16.0 °F 6.3 °F 9.0 °F 74% 30.15 in 10.0 mi North 6.9 mph - N/A   Clear
7:53 AM 14.0 °F - 8.1 °F 77% 30.21 in 8.0 mi Calm Calm - N/A   Clear
8:10 AM 14.0 °F - 9.0 °F 80% 30.18 in 1.8 mi Calm Calm - N/A   Haze
8:17 AM 14.0 °F 8.2 °F 10.0 °F 84% 30.18 in 3.0 mi South 3.5 mph - N/A   Scattered Clouds
8:27 AM 15.1 °F 9.4 °F 9.0 °F 77% 30.19 in 5.0 mi SSW 3.5 mph - N/A   Haze
8:53 AM 19.0 °F - 10.9 °F 71% 30.24 in 10.0 mi Calm Calm - N/A   Overcast
9:23 AM 19.9 °F 13.4 °F 10.0 °F 65% 30.21 in 10.0 mi NNW 4.6 mph - N/A   Scattered Clouds
9:46 AM 19.9 °F 10.1 °F 10.9 °F 68% 30.22 in 10.0 mi NW 8.1 mph - N/A   Mostly Cloudy
9:53 AM 19.9 °F 12.1 °F 10.9 °F 68% 30.26 in 10.0 mi NNW 5.8 mph - N/A   Mostly Cloudy
10:50 AM 24.8 °F - 10.4 °F 54% 30.23 in 10.0 mi Calm Calm - N/A   Scattered Clouds
10:53 AM 23.0 °F - 10.9 °F 60% 30.27 in 10.0 mi Calm Calm - N/A   Partly Cloudy
11:53 AM 25.0 °F 19.3 °F 10.9 °F 55% 30.25 in 10.0 mi Variable 4.6 mph - N/A   Clear
12:53 PM 25.0 °F 18.1 °F 10.9 °F 55% 30.24 in 10.0 mi East 5.8 mph - N/A   Clear
1:53 PM 27.0 °F 23.0 °F 10.9 °F 51% 30.23 in 10.0 mi Variable 3.5 mph - N/A   Clear
2:53 PM 27.0 °F 19.5 °F 9.0 °F 47% 30.22 in 10.0 mi Variable 6.9 mph - N/A   Clear
3:53 PM 26.1 °F 18.4 °F 8.1 °F 47% 30.23 in 10.0 mi ESE 6.9 mph - N/A   Clear
4:53 PM 25.0 °F 19.3 °F 8.1 °F 49% 30.25 in 10.0 mi ESE 4.6 mph - N/A   Clear
5:23 PM 23.0 °F - 10.0 °F 58% 30.21 in 1.8 mi Calm Calm - N/A   Haze
5:42 PM 21.9 °F 17.2 °F 9.0 °F 58% 30.21 in 3.0 mi Variable 3.5 mph - N/A   Haze
5:53 PM 21.0 °F - 9.0 °F 60% 30.25 in 7.0 mi Calm Calm - N/A   Clear
6:53 PM 21.9 °F 17.2 °F 9.0 °F 58% 30.27 in 10.0 mi Variable 3.5 mph - N/A   Clear
7:53 PM 21.0 °F 16.2 °F 8.1 °F 57% 30.28 in 10.0 mi Variable 3.5 mph - N/A   Clear
8:53 PM 19.9 °F 9.3 °F 9.0 °F 62% 30.25 in 10.0 mi East 9.2 mph - N/A   Mostly Cloudy
9:53 PM 19.9 °F 12.1 °F 10.0 °F 65% 30.24 in 10.0 mi East 5.8 mph - N/A   Overcast
10:53 PM 19.9 °F 14.9 °F 10.0 °F 65% 30.23 in 10.0 mi Variable 3.5 mph - N/A   Overcast
11:53 PM 19.9 °F 13.4 °F 12.0 °F 71% 30.22 in 2.0 mi Variable 4.6 mph - 0.00 in Snow Light Snow